Time,TemperatureF,DewpointF,PressureIn,WindDirection,WindDirectionDegrees,WindSpeedMPH,WindSpeedGustMPH,Humidity,HourlyPrecipIn,Conditions,Clouds,dailyrainin,SoftwareType,DateUTC
2013-05-04 00:00:00,51.0,44.4,30.34,SE,135,0.0,1.0,78,0.00,,,0.00,Weather View 32 v70,2013-05-04 04:00:00,
2013-05-04 00:05:00,51.0,43.3,30.34,SSE,157,0.0,1.0,75,0.00,,,0.00,Weather View 32 v70,2013-05-04 04:05:00,
2013-05-04 00:10:00,51.0,42.6,30.34,SE,135,0.0,1.0,73,0.00,,,0.00,Weather View 32 v70,2013-05-04 04:10:00,
2013-05-04 00:15:00,51.0,43.3,30.34,SSE,157,0.0,1.0,75,0.00,,,0.00,Weather View 32 v70,2013-05-04 04:15:00,
2013-05-04 00:20:00,51.0,43.7,30.34,ESE,112,0.0,1.0,76,0.00,,,0.00,Weather View 32 v70,2013-05-04 04:20:00,
2013-05-04 00:22:00,51.0,43.7,30.34,ESE,112,0.0,1.0,76,0.00,,,0.00,Weather View 32 v70,2013-05-04 04:22:00,
2013-05-04 00:30:00,51.0,43.3,30.34,South,180,0.0,1.0,75,0.00,,,0.00,Weather View 32 v70,2013-05-04 04:30:00,
2013-05-04 00:35:00,50.0,43.4,30.34,South,180,0.0,1.0,78,0.00,,,0.00,Weather View 32 v70,2013-05-04 04:35:00,
2013-05-04 00:40:00,50.0,43.4,30.35,SE,135,0.0,1.0,78,0.00,,,0.00,Weather View 32 v70,2013-05-04 04:40:00,
2013-05-04 00:45:00,50.0,44.1,30.35,ESE,112,0.0,1.0,80,0.00,,,0.00,Weather View 32 v70,2013-05-04 04:45:00,
2013-05-04 00:55:00,50.0,44.1,30.34,ESE,112,0.0,1.0,80,0.00,,,0.00,Weather View 32 v70,2013-05-04 04:55:00,
2013-05-04 01:00:00,50.0,43.4,30.34,ESE,112,0.0,1.0,78,0.00,,,0.00,Weather View 32 v70,2013-05-04 05:00:00,
2013-05-04 01:05:00,50.0,43.7,30.34,ESE,112,0.0,1.0,79,0.00,,,0.00,Weather View 32 v70,2013-05-04 05:05:00,
2013-05-04 01:10:00,50.0,43.7,30.34,ESE,112,1.0,2.0,79,0.00,,,0.00,Weather View 32 v70,2013-05-04 05:10:00,
2013-05-04 01:15:00,50.0,44.1,30.34,ESE,112,0.0,2.0,80,0.00,,,0.00,Weather View 32 v70,2013-05-04 05:15:00,
2013-05-04 01:23:00,50.0,43.7,30.34,SSE,157,0.0,2.0,79,0.00,,,0.00,Weather View 32 v70,2013-05-04 05:23:00,
2013-05-04 01:30:00,50.0,44.1,30.33,ESE,112,0.0,5.0,80,0.00,,,0.00,Weather View 32 v70,2013-05-04 05:30:00,
2013-05-04 01:35:00,50.0,44.7,30.33,SSE,157,0.0,5.0,82,0.00,,,0.00,Weather View 32 v70,2013-05-04 05:35:00,
2013-05-04 01:40:00,50.0,44.7,30.33,SSE,157,0.0,5.0,82,0.00,,,0.00,Weather View 32 v70,2013-05-04 05:40:00,
2013-05-04 01:45:00,49.0,44.1,30.33,SSE,157,0.0,5.0,83,0.00,,,0.00,Weather View 32 v70,2013-05-04 05:45:00,
2013-05-04 01:50:00,49.0,43.7,30.34,SSW,202,0.0,5.0,82,0.00,,,0.00,Weather View 32 v70,2013-05-04 05:50:00,
2013-05-04 01:55:00,48.0,44.6,30.34,SSE,157,0.0,5.0,88,0.00,,,0.00,Weather View 32 v70,2013-05-04 05:55:00,
2013-05-04 02:05:00,47.0,43.6,30.34,ESE,112,0.0,5.0,88,0.00,,,0.00,Weather View 32 v70,2013-05-04 06:05:00,
2013-05-04 02:10:00,47.0,43.0,30.34,South,180,0.0,5.0,86,0.00,,,0.00,Weather View 32 v70,2013-05-04 06:10:00,
2013-05-04 02:15:00,47.0,43.0,30.34,South,180,0.0,5.0,86,0.00,,,0.00,Weather View 32 v70,2013-05-04 06:15:00,
2013-05-04 02:20:00,47.0,43.0,30.33,South,180,0.0,5.0,86,0.00,,,0.00,Weather View 32 v70,2013-05-04 06:20:00,
2013-05-04 02:25:00,47.0,43.9,30.33,South,180,0.0,5.0,89,0.00,,,0.00,Weather View 32 v70,2013-05-04 06:25:00,
2013-05-04 02:30:00,47.0,44.5,30.33,SSW,202,0.0,5.0,91,0.00,,,0.00,Weather View 32 v70,2013-05-04 06:30:00,
2013-05-04 02:40:00,47.0,44.2,30.32,South,180,0.0,2.0,90,0.00,,,0.00,Weather View 32 v70,2013-05-04 06:40:00,
2013-05-04 02:45:00,46.0,43.2,30.32,South,180,0.0,2.0,90,0.00,,,0.00,Weather View 32 v70,2013-05-04 06:45:00,
2013-05-04 02:50:00,46.0,43.2,30.33,South,180,0.0,1.0,90,0.00,,,0.00,Weather View 32 v70,2013-05-04 06:50:00,
2013-05-04 02:55:00,46.0,43.5,30.33,SSW,202,0.0,1.0,91,0.00,,,0.00,Weather View 32 v70,2013-05-04 06:55:00,
2013-05-04 03:00:00,46.0,44.4,30.32,South,180,0.0,1.0,94,0.00,,,0.00,Weather View 32 v70,2013-05-04 07:00:00,
2013-05-04 03:05:00,45.0,43.7,30.32,South,180,0.0,0.0,95,0.00,,,0.00,Weather View 32 v70,2013-05-04 07:05:00,
2013-05-04 03:15:00,45.0,43.9,30.33,South,180,0.0,0.0,96,0.00,,,0.00,Weather View 32 v70,2013-05-04 07:15:00,
2013-05-04 03:20:00,45.0,43.9,30.32,South,180,0.0,0.0,96,0.00,,,0.00,Weather View 32 v70,2013-05-04 07:20:00,
2013-05-04 03:25:00,45.0,43.7,30.32,South,180,0.0,0.0,95,0.00,,,0.00,Weather View 32 v70,2013-05-04 07:25:00,
2013-05-04 03:30:00,44.0,42.4,30.33,South,180,0.0,0.0,94,0.00,,,0.00,Weather View 32 v70,2013-05-04 07:30:00,
2013-05-04 03:35:00,44.0,43.5,30.33,South,180,0.0,0.0,98,0.00,,,0.00,Weather View 32 v70,2013-05-04 07:35:00,
2013-05-04 03:40:00,44.0,43.2,30.33,South,180,0.0,0.0,97,0.00,,,0.00,Weather View 32 v70,2013-05-04 07:40:00,
2013-05-04 03:50:00,44.0,43.5,30.32,South,180,0.0,0.0,98,0.00,,,0.00,Weather View 32 v70,2013-05-04 07:50:00,
2013-05-04 03:55:00,43.0,42.5,30.32,South,180,0.0,0.0,98,0.00,,,0.00,Weather View 32 v70,2013-05-04 07:55:00,
2013-05-04 04:00:00,43.0,42.5,30.33,South,180,0.0,0.0,98,0.00,,,0.00,Weather View 32 v70,2013-05-04 08:00:00,
2013-05-04 04:05:00,43.0,42.5,30.33,South,180,0.0,0.0,98,0.00,,,0.00,Weather View 32 v70,2013-05-04 08:05:00,
2013-05-04 04:10:00,43.0,42.5,30.33,South,180,0.0,0.0,98,0.00,,,0.00,Weather View 32 v70,2013-05-04 08:10:00,
2013-05-04 04:20:00,43.0,42.5,30.32,South,180,0.0,0.0,98,0.00,,,0.00,Weather View 32 v70,2013-05-04 08:20:00,
2013-05-04 04:25:00,43.0,42.5,30.32,South,180,0.0,0.0,98,0.00,,,0.00,Weather View 32 v70,2013-05-04 08:25:00,
2013-05-04 04:30:00,43.0,42.5,30.32,South,180,0.0,0.0,98,0.00,,,0.00,Weather View 32 v70,2013-05-04 08:30:00,
2013-05-04 04:35:00,42.0,41.5,30.32,South,180,0.0,0.0,98,0.00,,,0.00,Weather View 32 v70,2013-05-04 08:35:00,
2013-05-04 04:40:00,42.0,41.5,30.32,South,180,0.0,0.0,98,0.00,,,0.00,Weather View 32 v70,2013-05-04 08:40:00,
2013-05-04 04:50:00,42.0,41.7,30.32,South,180,0.0,0.0,99,0.00,,,0.00,Weather View 32 v70,2013-05-04 08:50:00,
2013-05-04 04:55:00,41.0,40.2,30.32,South,180,0.0,0.0,97,0.00,,,0.00,Weather View 32 v70,2013-05-04 08:55:00,
2013-05-04 05:00:00,41.0,40.2,30.33,South,180,0.0,0.0,97,0.00,,,0.00,Weather View 32 v70,2013-05-04 09:00:00,
2013-05-04 05:05:00,41.0,40.2,30.33,South,180,0.0,0.0,97,0.00,,,0.00,Weather View 32 v70,2013-05-04 09:05:00,
2013-05-04 05:10:00,41.0,40.2,30.33,South,180,0.0,0.0,97,0.00,,,0.00,Weather View 32 v70,2013-05-04 09:10:00,
2013-05-04 05:15:00,41.0,40.2,30.33,South,180,0.0,0.0,97,0.00,,,0.00,Weather View 32 v70,2013-05-04 09:15:00,
2013-05-04 05:20:00,41.0,40.2,30.33,South,180,0.0,0.0,97,0.00,,,0.00,Weather View 32 v70,2013-05-04 09:20:00,
2013-05-04 05:25:00,41.0,40.2,30.33,South,180,0.0,0.0,97,0.00,,,0.00,Weather View 32 v70,2013-05-04 09:25:00,
2013-05-04 05:35:00,41.0,40.2,30.33,South,180,0.0,0.0,97,0.00,,,0.00,Weather View 32 v70,2013-05-04 09:35:00,
2013-05-04 05:40:00,41.0,40.2,30.33,South,180,0.0,0.0,97,0.00,,,0.00,Weather View 32 v70,2013-05-04 09:40:00,
2013-05-04 05:45:00,41.0,40.2,30.33,South,180,0.0,0.0,97,0.00,,,0.00,Weather View 32 v70,2013-05-04 09:45:00,
2013-05-04 05:50:00,41.0,40.2,30.33,South,180,0.0,0.0,97,0.00,,,0.00,Weather View 32 v70,2013-05-04 09:50:00,
2013-05-04 05:55:00,41.0,40.2,30.33,South,180,0.0,0.0,97,0.00,,,0.00,Weather View 32 v70,2013-05-04 09:55:00,
2013-05-04 06:05:00,41.0,40.2,30.33,South,180,0.0,0.0,97,0.00,,,0.00,Weather View 32 v70,2013-05-04 10:05:00,
2013-05-04 06:10:00,41.0,40.2,30.34,South,180,0.0,0.0,97,0.00,,,0.00,Weather View 32 v70,2013-05-04 10:10:00,
2013-05-04 06:15:00,41.0,40.2,30.34,South,180,0.0,0.0,97,0.00,,,0.00,Weather View 32 v70,2013-05-04 10:15:00,
2013-05-04 06:20:00,41.0,40.2,30.34,South,180,0.0,0.0,97,0.00,,,0.00,Weather View 32 v70,2013-05-04 10:20:00,
2013-05-04 06:25:00,40.0,39.2,30.34,South,180,0.0,0.0,97,0.00,,,0.00,Weather View 32 v70,2013-05-04 10:25:00,
2013-05-04 06:30:00,41.0,40.2,30.34,South,180,0.0,0.0,97,0.00,,,0.00,Weather View 32 v70,2013-05-04 10:30:00,
2013-05-04 06:35:00,41.0,40.2,30.34,South,180,0.0,0.0,97,0.00,,,0.00,Weather View 32 v70,2013-05-04 10:35:00,
2013-05-04 06:45:00,41.0,40.2,30.34,South,180,0.0,0.0,97,0.00,,,0.00,Weather View 32 v70,2013-05-04 10:45:00,
2013-05-04 06:50:00,42.0,41.5,30.34,South,180,0.0,0.0,98,0.00,,,0.00,Weather View 32 v70,2013-05-04 10:50:00,
2013-05-04 06:55:00,42.0,41.5,30.34,South,180,0.0,0.0,98,0.00,,,0.00,Weather View 32 v70,2013-05-04 10:55:00,
2013-05-04 07:00:00,42.0,41.5,30.34,South,180,0.0,0.0,98,0.00,,,0.00,Weather View 32 v70,2013-05-04 11:00:00,
2013-05-04 07:05:00,43.0,42.5,30.34,South,180,0.0,0.0,98,0.00,,,0.00,Weather View 32 v70,2013-05-04 11:05:00,
2013-05-04 07:10:00,44.0,43.5,30.33,South,180,0.0,0.0,98,0.00,,,0.00,Weather View 32 v70,2013-05-04 11:10:00,
2013-05-04 07:20:00,45.0,43.9,30.33,South,180,0.0,0.0,96,0.00,,,0.00,Weather View 32 v70,2013-05-04 11:20:00,
2013-05-04 07:25:00,45.0,43.9,30.33,South,180,0.0,0.0,96,0.00,,,0.00,Weather View 32 v70,2013-05-04 11:25:00,
2013-05-04 07:30:00,46.0,45.5,30.33,South,180,0.0,0.0,98,0.00,,,0.00,Weather View 32 v70,2013-05-04 11:30:00,
2013-05-04 07:35:00,46.0,45.2,30.33,South,180,0.0,0.0,97,0.00,,,0.00,Weather View 32 v70,2013-05-04 11:35:00,
2013-05-04 07:40:00,47.0,46.2,30.32,South,180,0.0,0.0,97,0.00,,,0.00,Weather View 32 v70,2013-05-04 11:40:00,
2013-05-04 07:50:00,49.0,47.6,30.32,South,180,0.0,0.0,95,0.00,,,0.00,Weather View 32 v70,2013-05-04 11:50:00,
2013-05-04 08:05:00,53.0,52.4,30.32,South,180,0.0,0.0,98,0.00,,,0.00,Weather View 32 v70,2013-05-04 12:05:00,
2013-05-04 08:10:00,53.0,52.4,30.32,WSW,247,0.0,1.0,98,0.00,,,0.00,Weather View 32 v70,2013-05-04 12:10:00,
2013-05-04 08:15:00,53.0,50.4,30.32,SW,225,0.0,1.0,91,0.00,,,0.00,Weather View 32 v70,2013-05-04 12:15:00,
2013-05-04 08:20:00,55.0,50.6,30.32,SSW,202,0.0,1.0,85,0.00,,,0.00,Weather View 32 v70,2013-05-04 12:20:00,
2013-05-04 08:27:00,55.0,50.9,30.32,SW,225,0.0,1.0,86,0.00,,,0.00,Weather View 32 v70,2013-05-04 12:27:00,
2013-05-04 08:35:00,56.0,49.6,30.32,NW,315,2.0,3.0,79,0.00,,,0.00,Weather View 32 v70,2013-05-04 12:35:00,
2013-05-04 08:40:00,56.0,47.8,30.31,WNW,292,2.0,3.0,74,0.00,,,0.00,Weather View 32 v70,2013-05-04 12:40:00,
2013-05-04 08:45:00,58.0,49.7,30.31,WNW,292,0.0,3.0,74,0.00,,,0.00,Weather View 32 v70,2013-05-04 12:45:00,
2013-05-04 08:50:00,58.0,48.2,30.31,North,360,0.0,3.0,70,0.00,,,0.00,Weather View 32 v70,2013-05-04 12:50:00,
2013-05-04 08:55:00,59.0,48.4,30.31,SE,135,0.0,3.0,68,0.00,,,0.00,Weather View 32 v70,2013-05-04 12:55:00,
2013-05-04 09:05:00,61.0,47.0,30.30,NE,45,0.0,3.0,60,0.00,,,0.00,Weather View 32 v70,2013-05-04 13:05:00,
2013-05-04 09:10:00,63.0,48.4,30.29,SSW,202,0.0,3.0,59,0.00,,,0.00,Weather View 32 v70,2013-05-04 13:10:00,
2013-05-04 09:15:00,63.0,48.9,30.29,North,360,0.0,5.0,60,0.00,,,0.00,Weather View 32 v70,2013-05-04 13:15:00,
2013-05-04 09:20:00,63.0,46.5,30.29,NW,315,0.0,5.0,55,0.00,,,0.00,Weather View 32 v70,2013-05-04 13:20:00,
2013-05-04 09:25:00,62.0,46.6,30.29,NNW,337,2.0,5.0,57,0.00,,,0.00,Weather View 32 v70,2013-05-04 13:25:00,
2013-05-04 09:35:00,63.0,47.5,30.29,NW,315,0.0,5.0,57,0.00,,,0.00,Weather View 32 v70,2013-05-04 13:35:00,
2013-05-04 09:40:00,64.0,47.5,30.28,East,90,0.0,5.0,55,0.00,,,0.00,Weather View 32 v70,2013-05-04 13:40:00,
2013-05-04 09:45:00,64.0,47.0,30.28,ESE,112,0.0,5.0,54,0.00,,,0.00,Weather View 32 v70,2013-05-04 13:45:00,
2013-05-04 09:50:00,66.0,47.8,30.27,North,360,0.0,5.0,52,0.00,,,0.00,Weather View 32 v70,2013-05-04 13:50:00,
2013-05-04 09:55:00,66.0,47.8,30.27,WSW,247,0.0,5.0,52,0.00,,,0.00,Weather View 32 v70,2013-05-04 13:55:00,
2013-05-04 10:00:00,65.0,48.4,30.28,WSW,247,0.0,5.0,55,0.00,,,0.00,Weather View 32 v70,2013-05-04 14:00:00,
2013-05-04 10:05:00,64.0,47.5,30.28,West,270,0.0,5.0,55,0.00,,,0.00,Weather View 32 v70,2013-05-04 14:05:00,
2013-05-04 10:15:00,67.0,47.2,30.27,East,90,0.0,5.0,49,0.00,,,0.00,Weather View 32 v70,2013-05-04 14:15:00,
2013-05-04 10:20:00,67.0,46.1,30.26,NE,45,0.0,5.0,47,0.00,,,0.00,Weather View 32 v70,2013-05-04 14:20:00,
2013-05-04 10:25:00,64.0,47.5,30.26,NNE,22,0.0,7.0,55,0.00,,,0.00,Weather View 32 v70,2013-05-04 14:25:00,
2013-05-04 10:30:00,65.0,47.4,30.26,NNW,337,2.0,7.0,53,0.00,,,0.00,Weather View 32 v70,2013-05-04 14:30:00,
2013-05-04 10:35:00,64.0,48.4,30.26,WNW,292,1.0,8.0,57,0.00,,,0.00,Weather View 32 v70,2013-05-04 14:35:00,
2013-05-04 10:40:00,65.0,47.9,30.26,SSW,202,0.0,8.0,54,0.00,,,0.00,Weather View 32 v70,2013-05-04 14:40:00,
2013-05-04 10:45:00,65.0,48.4,30.26,NW,315,0.0,8.0,55,0.00,,,0.00,Weather View 32 v70,2013-05-04 14:45:00,
2013-05-04 10:55:00,64.0,47.0,30.26,SSW,202,2.0,9.0,54,0.00,,,0.00,Weather View 32 v70,2013-05-04 14:55:00,
2013-05-04 11:00:00,66.0,47.3,30.25,NNW,337,3.0,10.0,51,0.00,,,0.00,Weather View 32 v70,2013-05-04 15:00:00,
2013-05-04 11:05:00,66.0,46.8,30.25,NNW,337,4.0,10.0,50,0.00,,,0.00,Weather View 32 v70,2013-05-04 15:05:00,
2013-05-04 11:10:00,66.0,45.7,30.25,NNE,22,0.0,10.0,48,0.00,,,0.00,Weather View 32 v70,2013-05-04 15:10:00,
2013-05-04 11:20:00,68.0,46.4,30.24,North,360,0.0,10.0,46,0.00,,,0.00,Weather View 32 v70,2013-05-04 15:20:00,
2013-05-04 11:25:00,69.0,47.3,30.24,WSW,247,0.0,10.0,46,0.00,,,0.00,Weather View 32 v70,2013-05-04 15:25:00,
2013-05-04 11:30:00,71.0,47.9,30.22,NNE,22,3.0,10.0,44,0.00,,,0.00,Weather View 32 v70,2013-05-04 15:30:00,
2013-05-04 11:35:00,71.0,47.3,30.22,NNW,337,5.0,10.0,43,0.00,,,0.00,Weather View 32 v70,2013-05-04 15:35:00,
2013-05-04 11:40:00,70.0,47.6,30.22,NNW,337,0.0,10.0,45,0.00,,,0.00,Weather View 32 v70,2013-05-04 15:40:00,
2013-05-04 11:45:00,69.0,47.3,30.22,East,90,0.0,12.0,46,0.00,,,0.00,Weather View 32 v70,2013-05-04 15:45:00,
2013-05-04 11:50:00,69.0,47.3,30.21,NNE,22,3.0,12.0,46,0.00,,,0.00,Weather View 32 v70,2013-05-04 15:50:00,
2013-05-04 12:00:00,71.0,47.3,30.20,SSW,202,0.0,12.0,43,0.00,,,0.00,Weather View 32 v70,2013-05-04 16:00:00,
2013-05-04 12:05:00,69.0,46.7,30.20,NW,315,13.0,13.0,45,0.00,,,0.00,Weather View 32 v70,2013-05-04 16:05:00,
2013-05-04 12:10:00,69.0,47.3,30.21,NNW,337,0.0,15.0,46,0.00,,,0.00,Weather View 32 v70,2013-05-04 16:10:00,
2013-05-04 12:15:00,71.0,47.3,30.21,NW,315,0.0,15.0,43,0.00,,,0.00,Weather View 32 v70,2013-05-04 16:15:00,
2013-05-04 12:20:00,71.0,48.5,30.20,ENE,67,0.0,15.0,45,0.00,,,0.00,Weather View 32 v70,2013-05-04 16:20:00,
2013-05-04 12:29:00,71.0,46.7,30.20,NW,315,0.0,15.0,42,0.00,,,0.00,Weather View 32 v70,2013-05-04 16:29:00,
2013-05-04 12:35:00,73.0,49.1,30.18,East,90,0.0,15.0,43,0.00,,,0.00,Weather View 32 v70,2013-05-04 16:35:00,
2013-05-04 12:40:00,74.0,48.7,30.17,WSW,247,0.0,15.0,41,0.00,,,0.00,Weather View 32 v70,2013-05-04 16:40:00,
2013-05-04 12:45:00,73.0,46.5,30.17,North,360,2.0,15.0,39,0.00,,,0.00,Weather View 32 v70,2013-05-04 16:45:00,
2013-05-04 12:50:00,74.0,48.1,30.17,NE,45,0.0,15.0,40,0.00,,,0.00,Weather View 32 v70,2013-05-04 16:50:00,
2013-05-04 12:55:00,73.0,47.8,30.17,NNW,337,3.0,15.0,41,0.00,,,0.00,Weather View 32 v70,2013-05-04 16:55:00,
2013-05-04 13:00:00,72.0,46.9,30.18,NNW,337,0.0,15.0,41,0.00,,,0.00,Weather View 32 v70,2013-05-04 17:00:00,
2013-05-04 13:10:00,73.0,47.8,30.17,NW,315,5.0,15.0,41,0.00,,,0.00,Weather View 32 v70,2013-05-04 17:10:00,
2013-05-04 13:15:00,71.0,46.7,30.17,North,360,0.0,15.0,42,0.00,,,0.00,Weather View 32 v70,2013-05-04 17:15:00,
2013-05-04 13:20:00,73.0,47.8,30.17,ENE,67,0.0,8.0,41,0.00,,,0.00,Weather View 32 v70,2013-05-04 17:20:00,
2013-05-04 13:25:00,74.0,47.4,30.17,South,180,0.0,8.0,39,0.00,,,0.00,Weather View 32 v70,2013-05-04 17:25:00,
2013-05-04 13:30:00,73.0,46.5,30.16,NW,315,13.0,13.0,39,0.00,,,0.00,Weather View 32 v70,2013-05-04 17:30:00,
2013-05-04 13:40:00,74.0,47.4,30.15,NW,315,0.0,13.0,39,0.00,,,0.00,Weather View 32 v70,2013-05-04 17:40:00,
2013-05-04 13:45:00,74.0,47.4,30.15,NW,315,0.0,13.0,39,0.00,,,0.00,Weather View 32 v70,2013-05-04 17:45:00,
2013-05-04 13:50:00,72.0,45.6,30.17,NW,315,0.0,13.0,39,0.00,,,0.00,Weather View 32 v70,2013-05-04 17:50:00,
2013-05-04 13:55:00,73.0,47.8,30.17,North,360,0.0,13.0,41,0.00,,,0.00,Weather View 32 v70,2013-05-04 17:55:00,
2013-05-04 14:00:00,73.0,47.8,30.16,NNW,337,0.0,13.0,41,0.00,,,0.00,Weather View 32 v70,2013-05-04 18:00:00,
2013-05-04 14:05:00,73.0,46.5,30.16,NNW,337,3.0,13.0,39,0.00,,,0.00,Weather View 32 v70,2013-05-04 18:05:00,
2013-05-04 14:15:00,72.0,46.3,30.16,WSW,247,3.0,13.0,40,0.00,,,0.00,Weather View 32 v70,2013-05-04 18:15:00,
2013-05-04 14:20:00,73.0,46.5,30.15,NW,315,0.0,13.0,39,0.00,,,0.00,Weather View 32 v70,2013-05-04 18:20:00,
2013-05-04 14:25:00,74.0,46.7,30.15,SSW,202,0.0,13.0,38,0.00,,,0.00,Weather View 32 v70,2013-05-04 18:25:00,
2013-05-04 14:30:00,73.0,46.5,30.15,WSW,247,0.0,13.0,39,0.00,,,0.00,Weather View 32 v70,2013-05-04 18:30:00,
2013-05-04 14:40:00,74.0,45.3,30.14,SSW,202,6.0,12.0,36,0.00,,,0.00,Weather View 32 v70,2013-05-04 18:40:00,
2013-05-04 14:45:00,74.0,46.0,30.14,WNW,292,0.0,12.0,37,0.00,,,0.00,Weather View 32 v70,2013-05-04 18:45:00,
2013-05-04 14:55:00,74.0,46.0,30.13,WNW,292,0.0,11.0,37,0.00,,,0.00,Weather View 32 v70,2013-05-04 18:55:00,
2013-05-04 15:00:00,74.0,45.3,30.13,NNW,337,5.0,11.0,36,0.00,,,0.00,Weather View 32 v70,2013-05-04 19:00:00,
2013-05-04 15:05:00,74.0,46.0,30.13,NW,315,1.0,11.0,37,0.00,,,0.00,Weather View 32 v70,2013-05-04 19:05:00,
2013-05-04 15:10:00,75.0,45.4,30.12,WNW,292,2.0,11.0,35,0.00,,,0.00,Weather View 32 v70,2013-05-04 19:10:00,
2013-05-04 15:15:00,74.0,44.5,30.12,West,270,3.0,11.0,35,0.00,,,0.00,Weather View 32 v70,2013-05-04 19:15:00,
2013-05-04 15:20:00,75.0,46.2,30.12,NNW,337,0.0,10.0,36,0.00,,,0.00,Weather View 32 v70,2013-05-04 19:20:00,
2013-05-04 15:25:00,75.0,44.6,30.12,NNW,337,7.0,10.0,34,0.00,,,0.00,Weather View 32 v70,2013-05-04 19:25:00,
2013-05-04 15:31:00,75.0,45.4,30.11,SSE,157,0.0,10.0,35,0.00,,,0.00,Weather View 32 v70,2013-05-04 19:31:00,
2013-05-04 15:40:00,74.0,44.5,30.12,SSW,202,7.0,10.0,35,0.00,,,0.00,Weather View 32 v70,2013-05-04 19:40:00,
2013-05-04 15:45:00,75.0,44.6,30.12,West,270,0.0,10.0,34,0.00,,,0.00,Weather View 32 v70,2013-05-04 19:45:00,
2013-05-04 15:50:00,75.0,44.6,30.11,NNW,337,0.0,10.0,34,0.00,,,0.00,Weather View 32 v70,2013-05-04 19:50:00,
2013-05-04 15:55:00,74.0,45.3,30.11,ENE,67,3.0,10.0,36,0.00,,,0.00,Weather View 32 v70,2013-05-04 19:55:00,
2013-05-04 16:00:00,76.0,45.5,30.11,West,270,0.0,10.0,34,0.00,,,0.00,Weather View 32 v70,2013-05-04 20:00:00,
2013-05-04 16:05:00,76.0,45.5,30.11,North,360,0.0,10.0,34,0.00,,,0.00,Weather View 32 v70,2013-05-04 20:05:00,
2013-05-04 16:15:00,78.0,45.7,30.09,NW,315,0.0,10.0,32,0.00,,,0.00,Weather View 32 v70,2013-05-04 20:15:00,
2013-05-04 16:20:00,77.0,44.8,30.10,NNE,22,0.0,10.0,32,0.00,,,0.00,Weather View 32 v70,2013-05-04 20:20:00,
2013-05-04 16:25:00,77.0,44.8,30.10,WSW,247,0.0,10.0,32,0.00,,,0.00,Weather View 32 v70,2013-05-04 20:25:00,
2013-05-04 16:30:00,76.0,43.9,30.09,West,270,0.0,10.0,32,0.00,,,0.00,Weather View 32 v70,2013-05-04 20:30:00,
2013-05-04 16:40:00,76.0,43.9,30.09,WNW,292,0.0,9.0,32,0.00,,,0.00,Weather View 32 v70,2013-05-04 20:40:00,
2013-05-04 16:45:00,75.0,43.9,30.09,West,270,0.0,9.0,33,0.00,,,0.00,Weather View 32 v70,2013-05-04 20:45:00,
2013-05-04 16:50:00,76.0,43.9,30.09,North,360,0.0,9.0,32,0.00,,,0.00,Weather View 32 v70,2013-05-04 20:50:00,
2013-05-04 16:55:00,75.0,43.1,30.09,West,270,3.0,9.0,32,0.00,,,0.00,Weather View 32 v70,2013-05-04 20:55:00,
2013-05-04 17:00:00,75.0,43.9,30.09,NW,315,5.0,9.0,33,0.00,,,0.00,Weather View 32 v70,2013-05-04 21:00:00,
2013-05-04 17:05:00,75.0,43.9,30.09,West,270,0.0,8.0,33,0.00,,,0.00,Weather View 32 v70,2013-05-04 21:05:00,
2013-05-04 18:30:00,75.0,41.4,30.09,SE,135,0.0,11.0,30,0.00,,,0.00,Weather View 32 v70,2013-05-04 22:30:00,
2013-05-04 18:35:00,74.0,39.6,30.09,ESE,112,0.0,11.0,29,0.00,,,0.00,Weather View 32 v70,2013-05-04 22:35:00,
2013-05-04 18:40:00,74.0,40.5,30.09,SW,225,2.0,11.0,30,0.00,,,0.00,Weather View 32 v70,2013-05-04 22:40:00,
2013-05-04 18:50:00,74.0,38.7,30.09,South,180,0.0,11.0,28,0.00,,,0.00,Weather View 32 v70,2013-05-04 22:50:00,
2013-05-04 19:00:00,73.0,37.9,30.09,East,90,3.0,11.0,28,0.00,,,0.00,Weather View 32 v70,2013-05-04 23:00:00,
2013-05-04 19:05:00,72.0,36.1,30.09,ESE,112,4.0,11.0,27,0.00,,,0.00,Weather View 32 v70,2013-05-04 23:05:00,
2013-05-04 19:10:00,72.0,36.1,30.10,ESE,112,6.0,11.0,27,0.00,,,0.00,Weather View 32 v70,2013-05-04 23:10:00,
2013-05-04 19:15:00,72.0,36.1,30.10,South,180,1.0,12.0,27,0.00,,,0.00,Weather View 32 v70,2013-05-04 23:15:00,
2013-05-04 19:20:00,71.0,37.1,30.11,ESE,112,1.0,12.0,29,0.00,,,0.00,Weather View 32 v70,2013-05-04 23:20:00,
2013-05-04 19:25:00,71.0,42.6,30.11,SW,225,4.0,12.0,36,0.00,,,0.00,Weather View 32 v70,2013-05-04 23:25:00,
2013-05-04 19:33:00,70.0,43.8,30.11,South,180,2.0,12.0,39,0.00,,,0.00,Weather View 32 v70,2013-05-04 23:33:00,
2013-05-04 19:40:00,69.0,45.5,30.12,WSW,247,3.0,12.0,43,0.00,,,0.00,Weather View 32 v70,2013-05-04 23:40:00,
2013-05-04 19:45:00,68.0,45.2,30.12,SSW,202,0.0,12.0,44,0.00,,,0.00,Weather View 32 v70,2013-05-04 23:45:00,
2013-05-04 19:50:00,67.0,44.9,30.13,SW,225,0.0,12.0,45,0.00,,,0.00,Weather View 32 v70,2013-05-04 23:50:00,
2013-05-04 19:55:00,67.0,44.9,30.13,SSW,202,0.0,12.0,45,0.00,,,0.00,Weather View 32 v70,2013-05-04 23:55:00,
2013-05-04 20:00:00,66.0,45.1,30.14,SSW,202,4.0,12.0,47,0.00,,,0.00,Weather View 32 v70,2013-05-05 00:00:00,
2013-05-04 20:05:00,65.0,44.8,30.14,SW,225,0.0,12.0,48,0.00,,,0.00,Weather View 32 v70,2013-05-05 00:05:00,
2013-05-04 20:15:00,64.0,44.9,30.15,SSW,202,0.0,12.0,50,0.00,,,0.00,Weather View 32 v70,2013-05-05 00:15:00,
2013-05-04 20:20:00,64.0,45.5,30.15,ESE,112,0.0,11.0,51,0.00,,,0.00,Weather View 32 v70,2013-05-05 00:20:00,
2013-05-04 20:25:00,63.0,45.1,30.15,WSW,247,0.0,11.0,52,0.00,,,0.00,Weather View 32 v70,2013-05-05 00:25:00,
2013-05-04 20:30:00,63.0,45.6,30.16,South,180,1.0,11.0,53,0.00,,,0.00,Weather View 32 v70,2013-05-05 00:30:00,
2013-05-04 20:35:00,62.0,45.1,30.16,SSW,202,0.0,11.0,54,0.00,,,0.00,Weather View 32 v70,2013-05-05 00:35:00,
2013-05-04 20:40:00,62.0,45.6,30.18,South,180,0.0,11.0,55,0.00,,,0.00,Weather View 32 v70,2013-05-05 00:40:00,
2013-05-04 20:45:00,62.0,46.6,30.18,SW,225,1.0,11.0,57,0.00,,,0.00,Weather View 32 v70,2013-05-05 00:45:00,
2013-05-04 20:55:00,61.0,46.5,30.18,ESE,112,0.0,11.0,59,0.00,,,0.00,Weather View 32 v70,2013-05-05 00:55:00,
2013-05-04 21:00:00,61.0,46.5,30.19,SSE,157,0.0,11.0,59,0.00,,,0.00,Weather View 32 v70,2013-05-05 01:00:00,
2013-05-04 21:05:00,60.0,46.0,30.19,SSW,202,0.0,11.0,60,0.00,,,0.00,Weather View 32 v70,2013-05-05 01:05:00,
2013-05-04 21:10:00,60.0,46.5,30.20,South,180,0.0,11.0,61,0.00,,,0.00,Weather View 32 v70,2013-05-05 01:10:00,
2013-05-04 21:15:00,60.0,46.9,30.20,ESE,112,1.0,11.0,62,0.00,,,0.00,Weather View 32 v70,2013-05-05 01:15:00,
2013-05-04 21:25:00,59.0,46.4,30.20,South,180,0.0,11.0,63,0.00,,,0.00,Weather View 32 v70,2013-05-05 01:25:00,
2013-05-04 21:30:00,59.0,46.8,30.21,ENE,67,0.0,11.0,64,0.00,,,0.00,Weather View 32 v70,2013-05-05 01:30:00,
2013-05-04 21:35:00,58.0,46.3,30.21,ESE,112,1.0,11.0,65,0.00,,,0.00,Weather View 32 v70,2013-05-05 01:35:00,
2013-05-04 21:40:00,58.0,46.7,30.22,SSE,157,0.0,11.0,66,0.00,,,0.00,Weather View 32 v70,2013-05-05 01:40:00,
2013-05-04 21:45:00,58.0,46.7,30.22,SSE,157,0.0,11.0,66,0.00,,,0.00,Weather View 32 v70,2013-05-05 01:45:00,
2013-05-04 21:50:00,58.0,45.9,30.22,South,180,0.0,11.0,64,0.00,,,0.00,Weather View 32 v70,2013-05-05 01:50:00,
2013-05-04 22:05:00,57.0,47.7,30.23,SE,135,0.0,11.0,71,0.00,,,0.00,Weather View 32 v70,2013-05-05 02:05:00,
2013-05-04 22:10:00,56.0,47.1,30.24,ESE,112,0.0,10.0,72,0.00,,,0.00,Weather View 32 v70,2013-05-05 02:10:00,
2013-05-04 22:15:00,56.0,46.7,30.24,ESE,112,0.0,10.0,71,0.00,,,0.00,Weather View 32 v70,2013-05-05 02:15:00,
2013-05-04 22:20:00,55.0,46.5,30.24,ESE,112,0.0,10.0,73,0.00,,,0.00,Weather View 32 v70,2013-05-05 02:20:00,
2013-05-04 22:30:00,54.0,46.6,30.24,SSW,202,0.0,10.0,76,0.00,,,0.00,Weather View 32 v70,2013-05-05 02:30:00,
2013-05-04 22:35:00,54.0,46.9,30.24,SSE,157,0.0,8.0,77,0.00,,,0.00,Weather View 32 v70,2013-05-05 02:35:00,
2013-05-04 22:40:00,54.0,47.3,30.25,South,180,0.0,8.0,78,0.00,,,0.00,Weather View 32 v70,2013-05-05 02:40:00,
2013-05-04 22:45:00,53.0,46.0,30.25,SSE,157,0.0,8.0,77,0.00,,,0.00,Weather View 32 v70,2013-05-05 02:45:00,
2013-05-04 22:50:00,53.0,47.0,30.25,SSE,157,0.0,2.0,80,0.00,,,0.00,Weather View 32 v70,2013-05-05 02:50:00,
2013-05-04 22:55:00,53.0,46.6,30.25,South,180,0.0,2.0,79,0.00,,,0.00,Weather View 32 v70,2013-05-05 02:55:00,
2013-05-04 23:05:00,52.0,46.7,30.25,SSE,157,0.0,2.0,82,0.00,,,0.00,Weather View 32 v70,2013-05-05 03:05:00,
2013-05-04 23:10:00,52.0,47.0,30.26,SSE,157,0.0,2.0,83,0.00,,,0.00,Weather View 32 v70,2013-05-05 03:10:00,
2013-05-04 23:15:00,52.0,47.6,30.26,SSE,157,0.0,2.0,85,0.00,,,0.00,Weather View 32 v70,2013-05-05 03:15:00,
2013-05-04 23:20:00,51.0,46.0,30.26,South,180,0.0,2.0,83,0.00,,,0.00,Weather View 32 v70,2013-05-05 03:20:00,
2013-05-04 23:25:00,51.0,46.0,30.26,South,180,0.0,2.0,83,0.00,,,0.00,Weather View 32 v70,2013-05-05 03:25:00,
2013-05-04 23:35:00,51.0,47.6,30.26,ESE,112,0.0,1.0,88,0.00,,,0.00,Weather View 32 v70,2013-05-05 03:35:00,
2013-05-04 23:45:00,51.0,47.3,30.26,SE,135,0.0,4.0,87,0.00,,,0.00,Weather View 32 v70,2013-05-05 03:45:00,
2013-05-04 23:50:00,51.0,47.3,30.26,SE,135,0.0,4.0,87,0.00,,,0.00,Weather View 32 v70,2013-05-05 03:50:00,
2013-05-04 23:55:00,51.0,47.3,30.26,SSE,157,0.0,4.0,87,0.00,,,0.00,Weather View 32 v70,2013-05-05 03:55:00,